Find Starlink 36696

NORAD ID: 67651 Int'l Des: 2026-022 Owner: SPXS Country: US Constellation: starlink operational
LEOCIRCULARRETROGRADE

Live-Position

3D-Globus wird geladen...

Über Starlink 36696

Beschreibung wird geladen...

Nächste Überflüge

Passes for default location (London). Set your location on the main map for personalized predictions.

Höhenverlauf

Loading altitude history...

Zweizeiliger Elementsatz

1 67651U 26022D 26121.36695433 .00020881 00000-0 64699-3 0 9994
2 67651 97.2831 154.9258 0001102 81.7796 278.3572 15.33461212 13649
Epoch: 1. Mai 2026 • Age: 15 hours

Aktueller Status

Höhe 467.8 km
Geschwindigkeit 7.63 km/s
Subsatellitenpunkt 16.79°N, 123.67°E
Startdatum 2. Feb. 2026
Alter 0.2 years
Typ internet

Technische Details

Klassifizierung Payload
Masse 575.00 kg
Trockenmasse 530.00 kg
Gesamtmasse 575.00 kg
Länge 0.30 m
Durchmesser 4.10 m
Spannweite 29.00 m
Form Box + pan
Hersteller SPXS
Bus-Typ Starlink V2MO
Phasenstatus In Orbit
Besitzer/Staat SPXS/US

Most Searched